Time,TemperatureF,DewpointF,PressureIn,WindDirection,WindDirectionDegrees,WindSpeedMPH,WindSpeedGustMPH,Humidity,HourlyPrecipIn,Conditions,Clouds,dailyrainin,SoftwareType,DateUTC
2013-04-15 00:00:00,42.4,32.0,30.03,West,277,3.6,3.6,32,0.00,,,-99.99,wx200d/1.3,2013-04-15 04:00:00,
2013-04-15 00:01:00,42.3,32.0,30.03,NNW,347,4.0,4.5,32,0.00,,,-99.99,wx200d/1.3,2013-04-15 04:01:00,
2013-04-15 00:04:00,42.1,32.0,30.03,NNW,333,3.6,6.3,32,0.00,,,-99.99,wx200d/1.3,2013-04-15 04:04:00,
2013-04-15 00:08:00,42.1,32.0,30.03,WNW,294,3.6,3.6,33,0.00,,,-99.99,wx200d/1.3,2013-04-15 04:08:00,
2013-04-15 00:13:00,42.3,32.0,30.03,NW,319,3.1,0.0,35,0.00,,,-99.99,wx200d/1.3,2013-04-15 04:13:00,
2013-04-15 00:18:00,42.1,32.0,30.03,WNW,289,3.6,0.0,35,0.00,,,-99.99,wx200d/1.3,2013-04-15 04:18:00,
2013-04-15 00:23:00,42.1,32.0,30.03,NNW,329,4.0,4.0,35,0.00,,,-99.99,wx200d/1.3,2013-04-15 04:23:00,
2013-04-15 00:28:00,41.9,32.0,30.03,NNW,331,3.6,5.4,35,0.00,,,-99.99,wx200d/1.3,2013-04-15 04:28:00,
2013-04-15 00:33:00,41.7,32.0,30.03,North,2,5.4,0.0,35,0.00,,,-99.99,wx200d/1.3,2013-04-15 04:33:00,
2013-04-15 00:38:00,41.7,32.0,30.03,North,0,3.6,0.0,36,0.00,,,-99.99,wx200d/1.3,2013-04-15 04:38:00,
2013-04-15 00:43:00,41.7,32.0,30.03,NW,322,2.7,3.6,36,0.00,,,-99.99,wx200d/1.3,2013-04-15 04:43:00,
2013-04-15 00:48:00,41.5,32.0,30.03,NW,309,2.7,0.0,36,0.00,,,-99.99,wx200d/1.3,2013-04-15 04:48:00,
2013-04-15 00:53:00,41.5,32.0,30.03,NNW,328,0.0,0.0,37,0.00,,,-99.99,wx200d/1.3,2013-04-15 04:53:00,
2013-04-15 00:59:00,41.7,32.0,30.03,NNW,333,4.0,4.0,38,0.00,,,-99.99,wx200d/1.3,2013-04-15 04:59:00,
2013-04-15 01:04:00,41.7,32.0,30.03,NW,320,0.0,4.0,38,0.00,,,-99.99,wx200d/1.3,2013-04-15 05:04:00,
2013-04-15 01:09:00,41.7,32.0,30.03,WNW,287,2.7,4.9,38,0.00,,,-99.99,wx200d/1.3,2013-04-15 05:09:00,
2013-04-15 01:14:00,41.2,32.0,30.03,West,277,4.0,4.5,36,0.00,,,-99.99,wx200d/1.3,2013-04-15 05:14:00,
2013-04-15 01:19:00,40.8,32.0,30.03,WNW,283,4.0,4.0,37,0.00,,,-99.99,wx200d/1.3,2013-04-15 05:19:00,
2013-04-15 01:24:00,40.8,32.0,30.06,WNW,292,3.6,3.6,38,0.00,,,-99.99,wx200d/1.3,2013-04-15 05:24:00,
2013-04-15 01:29:00,41.2,32.0,30.06,SSW,195,4.0,4.5,38,0.00,,,-99.99,wx200d/1.3,2013-04-15 05:29:00,
2013-04-15 01:34:00,41.0,32.0,30.06,SW,233,0.0,3.6,38,0.00,,,-99.99,wx200d/1.3,2013-04-15 05:34:00,
2013-04-15 01:39:00,40.6,32.0,30.03,North,356,4.9,4.9,38,0.00,,,-99.99,wx200d/1.3,2013-04-15 05:39:00,
2013-04-15 01:44:00,40.6,32.0,30.03,NW,326,5.4,5.4,38,0.00,,,-99.99,wx200d/1.3,2013-04-15 05:44:00,
2013-04-15 01:49:00,40.6,32.0,30.03,NNW,333,2.7,3.1,38,0.00,,,-99.99,wx200d/1.3,2013-04-15 05:49:00,
2013-04-15 01:54:00,40.6,32.0,30.03,North,356,4.5,0.0,38,0.00,,,-99.99,wx200d/1.3,2013-04-15 05:54:00,
2013-04-15 01:59:00,40.6,32.0,30.03,NW,313,3.6,4.0,38,0.00,,,-99.99,wx200d/1.3,2013-04-15 05:59:00,
2013-04-15 02:04:00,40.5,32.0,30.03,WNW,296,4.9,4.9,38,0.00,,,-99.99,wx200d/1.3,2013-04-15 06:04:00,
2013-04-15 02:09:00,40.5,32.0,30.06,NNW,339,3.6,4.9,39,0.00,,,-99.99,wx200d/1.3,2013-04-15 06:09:00,
2013-04-15 02:14:00,40.5,32.0,30.06,North,6,3.1,0.0,39,0.00,,,-99.99,wx200d/1.3,2013-04-15 06:14:00,
2013-04-15 02:19:00,40.6,32.0,30.06,North,3,2.7,2.7,39,0.00,,,-99.99,wx200d/1.3,2013-04-15 06:19:00,
2013-04-15 02:24:00,40.8,32.0,30.06,North,356,0.0,0.0,39,0.00,,,-99.99,wx200d/1.3,2013-04-15 06:24:00,
2013-04-15 02:29:00,40.8,32.0,30.06,North,351,3.1,0.0,39,0.00,,,-99.99,wx200d/1.3,2013-04-15 06:29:00,
2013-04-15 02:34:00,41.0,32.0,30.06,North,351,0.0,0.0,39,0.00,,,-99.99,wx200d/1.3,2013-04-15 06:34:00,
2013-04-15 02:39:00,40.8,32.0,30.06,North,356,2.7,3.1,39,0.00,,,-99.99,wx200d/1.3,2013-04-15 06:39:00,
2013-04-15 02:44:00,40.8,32.0,30.06,North,6,0.0,0.0,39,0.00,,,-99.99,wx200d/1.3,2013-04-15 06:44:00,
2013-04-15 02:49:00,40.8,32.0,30.06,East,91,2.7,4.0,40,0.00,,,-99.99,wx200d/1.3,2013-04-15 06:49:00,
2013-04-15 02:54:00,40.5,32.0,30.06,NNW,344,3.1,3.1,39,0.00,,,-99.99,wx200d/1.3,2013-04-15 06:54:00,
2013-04-15 02:59:00,40.3,32.0,30.06,NNW,338,3.1,0.0,40,0.00,,,-99.99,wx200d/1.3,2013-04-15 06:59:00,
2013-04-15 03:04:00,40.1,32.0,30.06,NNW,340,2.7,4.5,40,0.00,,,-99.99,wx200d/1.3,2013-04-15 07:04:00,
2013-04-15 03:41:00,40.5,32.0,30.06,NW,305,0.0,0.0,41,0.00,,,-99.99,wx200d/1.3,2013-04-15 07:41:00,
2013-04-15 03:42:00,40.5,32.0,30.06,NW,306,0.0,0.0,41,0.00,,,-99.99,wx200d/1.3,2013-04-15 07:42:00,
2013-04-15 03:43:00,40.5,32.0,30.06,NW,305,0.0,2.7,41,0.00,,,-99.99,wx200d/1.3,2013-04-15 07:43:00,
2013-04-15 03:44:00,40.5,32.0,30.06,NNW,327,2.7,4.5,41,0.00,,,-99.99,wx200d/1.3,2013-04-15 07:44:00,
2013-04-15 03:48:00,40.3,32.0,30.06,NNW,335,0.0,0.0,41,0.00,,,-99.99,wx200d/1.3,2013-04-15 07:48:00,
2013-04-15 03:49:00,40.3,32.0,30.06,NNW,335,0.0,0.0,41,0.00,,,-99.99,wx200d/1.3,2013-04-15 07:49:00,
2013-04-15 03:54:00,39.9,32.0,30.06,NW,322,0.0,0.0,41,0.00,,,-99.99,wx200d/1.3,2013-04-15 07:54:00,
2013-04-15 03:57:00,40.1,32.0,30.06,NW,322,2.7,0.0,41,0.00,,,-99.99,wx200d/1.3,2013-04-15 07:57:00,
2013-04-15 04:02:00,40.3,32.0,30.06,NW,322,0.0,0.0,42,0.00,,,-99.99,wx200d/1.3,2013-04-15 08:02:00,
2013-04-15 04:07:00,39.9,32.0,30.09,NW,322,0.0,0.0,42,0.00,,,-99.99,wx200d/1.3,2013-04-15 08:07:00,
2013-04-15 04:12:00,39.7,32.0,30.09,NW,322,0.0,0.0,41,0.00,,,-99.99,wx200d/1.3,2013-04-15 08:12:00,
2013-04-15 04:17:00,39.6,32.0,30.09,NW,322,0.0,0.0,41,0.00,,,-99.99,wx200d/1.3,2013-04-15 08:17:00,
2013-04-15 04:23:00,40.1,32.0,30.09,NW,322,0.0,0.0,42,0.00,,,-99.99,wx200d/1.3,2013-04-15 08:23:00,
2013-04-15 04:28:00,40.1,32.0,30.09,North,356,0.0,0.0,42,0.00,,,-99.99,wx200d/1.3,2013-04-15 08:28:00,
2013-04-15 04:34:00,40.1,32.0,30.09,North,356,0.0,0.0,42,0.00,,,-99.99,wx200d/1.3,2013-04-15 08:34:00,
2013-04-15 04:36:00,39.9,32.0,30.09,North,3,2.7,3.6,43,0.00,,,-99.99,wx200d/1.3,2013-04-15 08:36:00,
2013-04-15 04:40:00,39.9,32.0,30.09,North,356,0.0,0.0,43,0.00,,,-99.99,wx200d/1.3,2013-04-15 08:40:00,
2013-04-15 04:41:00,39.9,32.0,30.09,North,356,0.0,0.0,43,0.00,,,-99.99,wx200d/1.3,2013-04-15 08:41:00,
2013-04-15 04:45:00,39.6,32.0,30.09,North,356,0.0,0.0,42,0.00,,,-99.99,wx200d/1.3,2013-04-15 08:45:00,
2013-04-15 04:46:00,39.6,32.0,30.09,North,356,0.0,0.0,43,0.00,,,-99.99,wx200d/1.3,2013-04-15 08:46:00,
2013-04-15 04:51:00,39.4,32.0,30.09,North,356,2.7,0.0,43,0.00,,,-99.99,wx200d/1.3,2013-04-15 08:51:00,
2013-04-15 04:56:00,39.2,32.0,30.09,North,3,3.6,3.6,43,0.00,,,-99.99,wx200d/1.3,2013-04-15 08:56:00,
2013-04-15 05:01:00,38.8,32.0,30.09,North,3,0.0,0.0,43,0.00,,,-99.99,wx200d/1.3,2013-04-15 09:01:00,
2013-04-15 05:06:00,38.7,32.0,30.09,North,9,3.1,3.1,43,0.00,,,-99.99,wx200d/1.3,2013-04-15 09:06:00,
2013-04-15 05:11:00,39.0,32.0,30.09,North,11,3.6,4.9,44,0.00,,,-99.99,wx200d/1.3,2013-04-15 09:11:00,
2013-04-15 05:16:00,38.8,32.0,30.09,North,11,0.0,0.0,44,0.00,,,-99.99,wx200d/1.3,2013-04-15 09:16:00,
2013-04-15 05:21:00,39.0,32.0,30.09,North,11,0.0,0.0,44,0.00,,,-99.99,wx200d/1.3,2013-04-15 09:21:00,
2013-04-15 05:26:00,39.0,32.0,30.09,North,11,2.7,0.0,44,0.00,,,-99.99,wx200d/1.3,2013-04-15 09:26:00,
2013-04-15 05:31:00,38.7,32.0,30.09,North,11,0.0,0.0,43,0.00,,,-99.99,wx200d/1.3,2013-04-15 09:31:00,
2013-04-15 05:36:00,38.3,32.0,30.09,North,11,0.0,0.0,44,0.00,,,-99.99,wx200d/1.3,2013-04-15 09:36:00,
2013-04-15 05:41:00,38.1,32.0,30.09,North,11,0.0,0.0,44,0.00,,,-99.99,wx200d/1.3,2013-04-15 09:41:00,
2013-04-15 05:46:00,37.9,32.0,30.09,North,11,0.0,2.7,44,0.00,,,-99.99,wx200d/1.3,2013-04-15 09:46:00,
2013-04-15 05:51:00,37.8,32.0,30.12,North,11,2.7,3.1,44,0.00,,,-99.99,wx200d/1.3,2013-04-15 09:51:00,
2013-04-15 05:56:00,37.6,32.0,30.12,NNE,17,3.6,4.0,44,0.00,,,-99.99,wx200d/1.3,2013-04-15 09:56:00,
2013-04-15 06:01:00,37.4,32.0,30.12,NNE,13,0.0,2.7,45,0.00,,,-99.99,wx200d/1.3,2013-04-15 10:01:00,
2013-04-15 06:06:00,37.4,32.0,30.12,NNE,13,2.7,2.7,45,0.00,,,-99.99,wx200d/1.3,2013-04-15 10:06:00,
2013-04-15 06:11:00,37.4,32.0,30.12,NNE,12,0.0,0.0,45,0.00,,,-99.99,wx200d/1.3,2013-04-15 10:11:00,
2013-04-15 06:16:00,37.6,32.0,30.12,NNE,12,0.0,0.0,46,0.00,,,-99.99,wx200d/1.3,2013-04-15 10:16:00,
2013-04-15 06:21:00,37.8,32.0,30.12,NNE,13,2.7,3.1,46,0.00,,,-99.99,wx200d/1.3,2013-04-15 10:21:00,
2013-04-15 06:26:00,37.9,32.0,30.12,North,3,0.0,3.6,46,0.00,,,-99.99,wx200d/1.3,2013-04-15 10:26:00,
2013-04-15 06:31:00,38.5,32.0,30.12,North,3,0.0,0.0,46,0.00,,,-99.99,wx200d/1.3,2013-04-15 10:31:00,
2013-04-15 06:36:00,39.2,32.0,30.15,North,3,0.0,0.0,47,0.00,,,-99.99,wx200d/1.3,2013-04-15 10:36:00,
2013-04-15 06:41:00,39.9,32.0,30.15,North,3,0.0,4.0,47,0.00,,,-99.99,wx200d/1.3,2013-04-15 10:41:00,
2013-04-15 06:46:00,40.6,32.0,30.15,North,3,2.7,3.1,47,0.00,,,-99.99,wx200d/1.3,2013-04-15 10:46:00,
2013-04-15 06:51:00,41.2,32.0,30.15,North,3,4.0,4.9,46,0.00,,,-99.99,wx200d/1.3,2013-04-15 10:51:00,
2013-04-15 06:56:00,41.7,32.0,30.15,North,356,0.0,4.0,44,0.00,,,-99.99,wx200d/1.3,2013-04-15 10:56:00,
2013-04-15 07:01:00,42.3,32.0,30.15,North,4,3.1,0.0,44,0.00,,,-99.99,wx200d/1.3,2013-04-15 11:01:00,
2013-04-15 07:06:00,43.3,32.0,30.15,North,3,0.0,0.0,43,0.00,,,-99.99,wx200d/1.3,2013-04-15 11:06:00,
2013-04-15 07:11:00,44.4,32.0,30.15,North,5,4.5,4.5,43,0.00,,,-99.99,wx200d/1.3,2013-04-15 11:11:00,
2013-04-15 07:16:00,45.7,32.0,30.15,North,7,2.7,3.6,42,0.00,,,-99.99,wx200d/1.3,2013-04-15 11:16:00,
2013-04-15 07:21:00,46.2,32.0,30.18,North,7,2.7,0.0,40,0.00,,,-99.99,wx200d/1.3,2013-04-15 11:21:00,
2013-04-15 07:26:00,46.8,32.0,30.18,North,356,0.0,3.6,38,0.00,,,-99.99,wx200d/1.3,2013-04-15 11:26:00,
2013-04-15 07:31:00,47.5,32.0,30.18,North,356,3.6,4.5,37,0.00,,,-99.99,wx200d/1.3,2013-04-15 11:31:00,
2013-04-15 07:36:00,48.2,32.0,30.18,North,356,4.0,4.9,36,0.00,,,-99.99,wx200d/1.3,2013-04-15 11:36:00,
2013-04-15 07:41:00,49.3,32.0,30.18,NNE,15,2.7,4.5,34,0.00,,,-99.99,wx200d/1.3,2013-04-15 11:41:00,
2013-04-15 07:46:00,50.2,32.0,30.18,NE,34,3.6,4.9,31,0.00,,,-99.99,wx200d/1.3,2013-04-15 11:46:00,
2013-04-15 07:51:00,50.4,32.0,30.18,North,11,2.7,0.0,29,0.00,,,-99.99,wx200d/1.3,2013-04-15 11:51:00,
2013-04-15 07:56:00,51.1,32.0,30.18,North,11,0.0,4.0,28,0.00,,,-99.99,wx200d/1.3,2013-04-15 11:56:00,
2013-04-15 08:01:00,52.0,32.0,30.18,North,356,0.0,0.0,27,0.00,,,-99.99,wx200d/1.3,2013-04-15 12:01:00,
2013-04-15 08:06:00,52.9,32.0,30.18,NNE,15,3.6,3.6,26,0.00,,,-99.99,wx200d/1.3,2013-04-15 12:06:00,
2013-04-15 08:11:00,54.0,32.0,30.18,North,2,0.0,3.6,26,0.00,,,-99.99,wx200d/1.3,2013-04-15 12:11:00,
2013-04-15 08:17:00,55.4,32.0,30.18,North,5,3.6,3.6,25,0.00,,,-99.99,wx200d/1.3,2013-04-15 12:17:00,
2013-04-15 08:22:00,56.5,32.0,30.18,NNE,13,0.0,0.0,22,0.00,,,-99.99,wx200d/1.3,2013-04-15 12:22:00,
2013-04-15 08:27:00,57.7,32.0,30.18,NNE,13,0.0,0.0,22,0.00,,,-99.99,wx200d/1.3,2013-04-15 12:27:00,
2013-04-15 08:32:00,59.0,32.0,30.18,North,356,0.0,0.0,19,0.00,,,-99.99,wx200d/1.3,2013-04-15 12:32:00,
2013-04-15 08:39:00,59.2,32.0,30.18,North,356,0.0,0.0,17,0.00,,,-99.99,wx200d/1.3,2013-04-15 12:39:00,
2013-04-15 08:44:00,59.9,32.0,30.18,North,356,2.7,0.0,17,0.00,,,-99.99,wx200d/1.3,2013-04-15 12:44:00,
2013-04-15 08:49:00,59.5,32.0,30.18,North,356,0.0,0.0,17,0.00,,,-99.99,wx200d/1.3,2013-04-15 12:49:00,
2013-04-15 08:54:00,59.7,32.0,30.18,North,356,0.0,0.0,17,0.00,,,-99.99,wx200d/1.3,2013-04-15 12:54:00,
2013-04-15 08:59:00,61.3,32.0,30.18,North,356,0.0,0.0,16,0.00,,,-99.99,wx200d/1.3,2013-04-15 12:59:00,
2013-04-15 09:04:00,62.4,32.0,30.18,North,356,0.0,0.0,16,0.00,,,-99.99,wx200d/1.3,2013-04-15 13:04:00,
2013-04-15 09:10:00,63.1,32.0,30.18,East,87,2.7,0.0,16,0.00,,,-99.99,wx200d/1.3,2013-04-15 13:10:00,
2013-04-15 09:15:00,63.1,32.0,30.18,East,97,3.6,3.6,13,0.00,,,-99.99,wx200d/1.3,2013-04-15 13:15:00,
2013-04-15 09:20:00,61.3,32.0,30.18,East,95,4.0,4.0,14,0.00,,,-99.99,wx200d/1.3,2013-04-15 13:20:00,
2013-04-15 09:26:00,60.6,32.0,30.18,SSE,149,3.6,5.4,14,0.00,,,-99.99,wx200d/1.3,2013-04-15 13:26:00,
2013-04-15 09:31:00,59.7,32.0,30.18,SSE,158,2.7,5.4,14,0.00,,,-99.99,wx200d/1.3,2013-04-15 13:31:00,
2013-04-15 09:36:00,59.2,32.0,30.18,SE,141,3.1,0.0,14,0.00,,,-99.99,wx200d/1.3,2013-04-15 13:36:00,
2013-04-15 09:41:00,61.7,32.0,30.18,SE,138,0.0,3.1,14,0.00,,,-99.99,wx200d/1.3,2013-04-15 13:41:00,
2013-04-15 09:46:00,63.0,32.0,30.18,ESE,116,2.7,3.6,13,0.00,,,-99.99,wx200d/1.3,2013-04-15 13:46:00,
2013-04-15 09:51:00,61.5,32.0,30.21,SSE,149,2.7,4.0,14,0.00,,,-99.99,wx200d/1.3,2013-04-15 13:51:00,
2013-04-15 09:56:00,61.2,32.0,30.21,SSE,164,4.0,4.0,14,0.00,,,-99.99,wx200d/1.3,2013-04-15 13:56:00,
2013-04-15 10:01:00,61.3,32.0,30.21,ESE,112,4.5,5.4,14,0.00,,,-99.99,wx200d/1.3,2013-04-15 14:01:00,
2013-04-15 10:06:00,61.5,32.0,30.21,SW,225,0.0,0.0,14,0.00,,,-99.99,wx200d/1.3,2013-04-15 14:06:00,
2013-04-15 10:11:00,61.9,32.0,30.21,WNW,287,3.1,4.0,13,0.00,,,-99.99,wx200d/1.3,2013-04-15 14:11:00,
2013-04-15 10:16:00,59.5,32.0,30.21,South,177,4.0,0.0,14,0.00,,,-99.99,wx200d/1.3,2013-04-15 14:16:00,
2013-04-15 10:21:00,59.9,32.0,30.21,SE,131,4.5,4.5,14,0.00,,,-99.99,wx200d/1.3,2013-04-15 14:21:00,
2013-04-15 10:27:00,61.0,32.0,30.21,ESE,113,4.9,4.9,14,0.00,,,-99.99,wx200d/1.3,2013-04-15 14:27:00,
2013-04-15 10:33:00,58.3,32.0,30.21,SE,146,4.9,4.9,14,0.00,,,-99.99,wx200d/1.3,2013-04-15 14:33:00,
2013-04-15 10:38:00,59.7,32.0,30.21,SE,137,3.6,4.0,14,0.00,,,-99.99,wx200d/1.3,2013-04-15 14:38:00,
2013-04-15 10:44:00,61.0,32.0,30.21,SSW,194,4.5,4.5,14,0.00,,,-99.99,wx200d/1.3,2013-04-15 14:44:00,
2013-04-15 10:49:00,61.0,32.0,30.21,ESE,119,4.0,4.0,14,0.00,,,-99.99,wx200d/1.3,2013-04-15 14:49:00,
2013-04-15 10:54:00,60.6,32.0,30.21,SSW,198,4.5,4.5,14,0.00,,,-99.99,wx200d/1.3,2013-04-15 14:54:00,
2013-04-15 10:59:00,58.3,32.0,30.21,ESE,121,4.9,4.9,14,0.00,,,-99.99,wx200d/1.3,2013-04-15 14:59:00,
2013-04-15 11:04:00,56.7,32.0,30.21,SE,129,3.6,4.5,14,0.00,,,-99.99,wx200d/1.3,2013-04-15 15:04:00,
2013-04-15 11:09:00,55.4,32.0,30.21,SE,125,4.9,4.9,15,0.00,,,-99.99,wx200d/1.3,2013-04-15 15:09:00,
2013-04-15 11:14:00,56.7,32.0,30.21,SE,145,3.1,0.0,14,0.00,,,-99.99,wx200d/1.3,2013-04-15 15:14:00,
2013-04-15 11:19:00,57.9,32.0,30.21,SSE,147,4.5,4.9,14,0.00,,,-99.99,wx200d/1.3,2013-04-15 15:19:00,
2013-04-15 11:24:00,57.6,32.0,30.21,ESE,117,5.4,5.4,14,0.00,,,-99.99,wx200d/1.3,2013-04-15 15:24:00,
2013-04-15 11:29:00,57.7,32.0,30.21,South,169,4.5,6.7,14,0.00,,,-99.99,wx200d/1.3,2013-04-15 15:29:00,
2013-04-15 11:34:00,58.6,32.0,30.21,SSE,156,3.6,6.9,14,0.00,,,-99.99,wx200d/1.3,2013-04-15 15:34:00,
2013-04-15 11:39:00,57.7,32.0,30.21,SE,128,4.9,4.9,14,0.00,,,-99.99,wx200d/1.3,2013-04-15 15:39:00,
2013-04-15 11:44:00,57.7,32.0,30.21,SSE,151,4.0,4.0,14,0.00,,,-99.99,wx200d/1.3,2013-04-15 15:44:00,
2013-04-15 11:49:00,58.8,32.0,30.21,SSE,154,3.6,0.0,14,0.00,,,-99.99,wx200d/1.3,2013-04-15 15:49:00,
2013-04-15 11:54:00,61.2,32.0,30.21,SSE,155,0.0,3.1,14,0.00,,,-99.99,wx200d/1.3,2013-04-15 15:54:00,
2013-04-15 11:59:00,60.6,32.0,30.21,SSE,153,3.1,3.1,14,0.00,,,-99.99,wx200d/1.3,2013-04-15 15:59:00,
2013-04-15 12:04:00,61.0,32.0,30.21,SSE,148,4.9,4.9,14,0.00,,,-99.99,wx200d/1.3,2013-04-15 16:04:00,
2013-04-15 12:09:00,58.3,32.0,30.21,SE,127,4.9,4.9,14,0.00,,,-99.99,wx200d/1.3,2013-04-15 16:09:00,
2013-04-15 12:15:00,58.5,32.0,30.21,ENE,73,4.5,4.5,14,0.00,,,-99.99,wx200d/1.3,2013-04-15 16:15:00,
2013-04-15 12:20:00,59.5,32.0,30.18,SSE,161,3.1,0.0,14,0.00,,,-99.99,wx200d/1.3,2013-04-15 16:20:00,
2013-04-15 12:25:00,60.3,32.0,30.18,East,101,4.5,4.5,14,0.00,,,-99.99,wx200d/1.3,2013-04-15 16:25:00,
2013-04-15 12:30:00,61.5,32.0,30.18,East,98,0.0,5.4,14,0.00,,,-99.99,wx200d/1.3,2013-04-15 16:30:00,
2013-04-15 12:35:00,63.0,32.0,30.18,NNE,29,2.7,0.0,13,0.00,,,-99.99,wx200d/1.3,2013-04-15 16:35:00,
2013-04-15 12:40:00,61.9,32.0,30.18,ESE,111,6.7,6.9,13,0.00,,,-99.99,wx200d/1.3,2013-04-15 16:40:00,
2013-04-15 12:45:00,61.2,32.0,30.18,SE,134,3.1,3.6,14,0.00,,,-99.99,wx200d/1.3,2013-04-15 16:45:00,
2013-04-15 12:50:00,60.4,32.0,30.18,SE,129,6.7,0.0,14,0.00,,,-99.99,wx200d/1.3,2013-04-15 16:50:00,
2013-04-15 12:55:00,60.4,32.0,30.18,ENE,78,4.0,7.8,14,0.00,,,-99.99,wx200d/1.3,2013-04-15 16:55:00,
2013-04-15 13:00:00,58.3,32.0,30.18,SE,125,7.8,10.1,14,0.00,,,-99.99,wx200d/1.3,2013-04-15 17:00:00,
2013-04-15 13:05:00,57.7,32.0,30.18,SE,133,6.3,6.3,14,0.00,,,-99.99,wx200d/1.3,2013-04-15 17:05:00,
2013-04-15 13:10:00,57.6,32.0,30.18,East,96,5.8,5.8,14,0.00,,,-99.99,wx200d/1.3,2013-04-15 17:10:00,
2013-04-15 13:15:00,57.0,32.0,30.18,SE,129,6.9,6.9,14,0.00,,,-99.99,wx200d/1.3,2013-04-15 17:15:00,
2013-04-15 13:20:00,57.4,32.0,30.18,East,99,5.8,7.8,14,0.00,,,-99.99,wx200d/1.3,2013-04-15 17:20:00,
2013-04-15 13:21:00,57.2,32.0,30.18,East,96,6.7,7.8,14,0.00,,,-99.99,wx200d/1.3,2013-04-15 17:21:00,
2013-04-15 13:23:00,56.1,32.0,30.18,SE,129,8.7,8.7,15,0.00,,,-99.99,wx200d/1.3,2013-04-15 17:23:00,
2013-04-15 13:24:00,56.5,32.0,30.18,ESE,112,6.9,6.9,14,0.00,,,-99.99,wx200d/1.3,2013-04-15 17:24:00,
2013-04-15 13:25:00,56.3,32.0,30.18,SSE,151,6.3,6.3,15,0.00,,,-99.99,wx200d/1.3,2013-04-15 17:25:00,
2013-04-15 13:30:00,57.0,32.0,30.18,SSE,154,5.8,5.8,14,0.00,,,-99.99,wx200d/1.3,2013-04-15 17:30:00,
2013-04-15 13:35:00,55.9,32.0,30.18,ESE,107,6.9,6.9,15,0.00,,,-99.99,wx200d/1.3,2013-04-15 17:35:00,
2013-04-15 13:40:00,55.9,32.0,30.18,SE,136,6.9,8.3,15,0.00,,,-99.99,wx200d/1.3,2013-04-15 17:40:00,
2013-04-15 13:45:00,56.8,32.0,30.18,East,90,5.8,5.8,14,0.00,,,-99.99,wx200d/1.3,2013-04-15 17:45:00,
2013-04-15 13:50:00,56.8,32.0,30.18,SE,129,6.9,6.9,14,0.00,,,-99.99,wx200d/1.3,2013-04-15 17:50:00,
2013-04-15 13:55:00,56.8,32.0,30.18,South,172,5.4,5.4,17,0.00,,,-99.99,wx200d/1.3,2013-04-15 17:55:00,
2013-04-15 14:00:00,55.8,32.0,30.18,South,179,6.3,8.7,17,0.00,,,-99.99,wx200d/1.3,2013-04-15 18:00:00,
2013-04-15 14:05:00,55.0,32.0,30.18,SE,140,6.9,6.9,17,0.00,,,-99.99,wx200d/1.3,2013-04-15 18:05:00,
2013-04-15 14:10:00,55.2,32.0,30.18,ESE,123,7.8,7.8,17,0.00,,,-99.99,wx200d/1.3,2013-04-15 18:10:00,
2013-04-15 14:15:00,54.1,32.0,30.18,East,100,8.7,8.7,18,0.00,,,-99.99,wx200d/1.3,2013-04-15 18:15:00,
2013-04-15 14:20:00,53.6,32.0,30.18,SSE,159,9.6,9.6,18,0.00,,,-99.99,wx200d/1.3,2013-04-15 18:20:00,
2013-04-15 14:25:00,53.4,32.0,30.18,East,91,6.9,9.2,18,0.00,,,-99.99,wx200d/1.3,2013-04-15 18:25:00,
2013-04-15 14:29:00,53.2,32.0,30.18,East,90,6.9,6.9,18,0.00,,,-99.99,wx200d/1.3,2013-04-15 18:29:00,
2013-04-15 14:30:00,53.2,32.0,30.18,ESE,112,6.7,6.7,18,0.00,,,-99.99,wx200d/1.3,2013-04-15 18:30:00,
2013-04-15 14:31:00,53.2,32.0,30.18,SSE,152,5.8,5.8,18,0.00,,,-99.99,wx200d/1.3,2013-04-15 18:31:00,
2013-04-15 14:34:00,53.1,32.0,30.18,SE,134,6.7,6.7,18,0.00,,,-99.99,wx200d/1.3,2013-04-15 18:34:00,
2013-04-15 14:39:00,53.1,32.0,30.18,SE,134,5.8,5.8,20,0.00,,,-99.99,wx200d/1.3,2013-04-15 18:39:00,
2013-04-15 14:44:00,53.1,32.0,30.18,SSE,149,6.7,8.3,20,0.00,,,-99.99,wx200d/1.3,2013-04-15 18:44:00,
2013-04-15 14:49:00,52.7,32.0,30.18,SE,144,6.9,6.9,26,0.00,,,-99.99,wx200d/1.3,2013-04-15 18:49:00,
2013-04-15 14:54:00,53.4,32.0,30.18,East,96,5.8,5.8,25,0.00,,,-99.99,wx200d/1.3,2013-04-15 18:54:00,
2013-04-15 14:59:00,53.8,32.0,30.18,SSE,150,4.9,7.4,25,0.00,,,-99.99,wx200d/1.3,2013-04-15 18:59:00,
2013-04-15 15:04:00,52.3,32.0,30.18,SE,139,9.2,9.2,26,0.00,,,-99.99,wx200d/1.3,2013-04-15 19:04:00,
2013-04-15 15:09:00,52.3,32.0,30.18,East,91,6.7,6.7,26,0.00,,,-99.99,wx200d/1.3,2013-04-15 19:09:00,
2013-04-15 15:14:00,52.0,32.0,30.18,ESE,122,7.4,7.4,26,0.00,,,-99.99,wx200d/1.3,2013-04-15 19:14:00,
2013-04-15 15:19:00,52.5,32.0,30.18,SSE,148,6.3,6.3,26,0.00,,,-99.99,wx200d/1.3,2013-04-15 19:19:00,
2013-04-15 15:24:00,53.6,32.0,30.18,SSE,149,5.4,5.4,26,0.00,,,-99.99,wx200d/1.3,2013-04-15 19:24:00,
2013-04-15 15:29:00,53.6,32.0,30.18,ESE,109,4.5,4.9,26,0.00,,,-99.99,wx200d/1.3,2013-04-15 19:29:00,
2013-04-15 15:34:00,53.8,32.0,30.18,South,186,4.0,4.0,26,0.00,,,-99.99,wx200d/1.3,2013-04-15 19:34:00,
2013-04-15 15:39:00,53.4,32.0,30.15,SE,141,4.5,6.3,26,0.00,,,-99.99,wx200d/1.3,2013-04-15 19:39:00,
2013-04-15 15:44:00,53.6,32.0,30.15,SSE,151,4.9,4.9,26,0.00,,,-99.99,wx200d/1.3,2013-04-15 19:44:00,
2013-04-15 15:49:00,52.5,32.0,30.15,SE,131,6.9,6.9,26,0.00,,,-99.99,wx200d/1.3,2013-04-15 19:49:00,
2013-04-15 15:54:00,52.5,32.0,30.15,SSE,149,7.4,10.5,26,0.00,,,-99.99,wx200d/1.3,2013-04-15 19:54:00,
2013-04-15 15:57:00,52.0,32.0,30.15,ESE,115,7.8,7.8,26,0.00,,,-99.99,wx200d/1.3,2013-04-15 19:57:00,
2013-04-15 16:02:00,52.2,32.0,30.15,SSE,147,6.3,8.7,27,0.00,,,-99.99,wx200d/1.3,2013-04-15 20:02:00,
2013-04-15 16:03:00,52.0,32.0,30.15,SSE,158,8.3,8.3,26,0.00,,,-99.99,wx200d/1.3,2013-04-15 20:03:00,
2013-04-15 16:05:00,52.3,32.0,30.15,ESE,119,4.5,5.8,26,0.00,,,-99.99,wx200d/1.3,2013-04-15 20:05:00,
2013-04-15 16:06:00,52.3,32.0,30.15,SE,130,7.4,7.8,26,0.00,,,-99.99,wx200d/1.3,2013-04-15 20:06:00,
2013-04-15 16:07:00,52.2,32.0,30.15,SE,132,7.4,7.4,26,0.00,,,-99.99,wx200d/1.3,2013-04-15 20:07:00,
2013-04-15 16:12:00,52.3,32.0,30.15,SE,139,7.8,7.8,26,0.00,,,-99.99,wx200d/1.3,2013-04-15 20:12:00,
2013-04-15 16:13:00,52.5,32.0,30.15,SSE,166,7.4,7.8,26,0.00,,,-99.99,wx200d/1.3,2013-04-15 20:13:00,
2013-04-15 16:18:00,52.5,32.0,30.15,SE,132,7.4,7.4,26,0.00,,,-99.99,wx200d/1.3,2013-04-15 20:18:00,
2013-04-15 16:23:00,51.8,32.0,30.15,SSE,165,9.6,9.6,26,0.00,,,-99.99,wx200d/1.3,2013-04-15 20:23:00,
2013-04-15 16:28:00,51.8,32.0,30.15,East,79,5.4,5.4,26,0.00,,,-99.99,wx200d/1.3,2013-04-15 20:28:00,
2013-04-15 16:33:00,52.2,32.0,30.15,ESE,105,4.0,4.9,26,0.00,,,-99.99,wx200d/1.3,2013-04-15 20:33:00,
2013-04-15 16:38:00,52.3,32.0,30.15,SE,129,5.8,8.7,26,0.00,,,-99.99,wx200d/1.3,2013-04-15 20:38:00,
2013-04-15 16:43:00,52.3,32.0,30.15,East,99,5.8,6.3,26,0.00,,,-99.99,wx200d/1.3,2013-04-15 20:43:00,
2013-04-15 16:48:00,52.0,32.0,30.15,SSE,158,6.7,6.7,23,0.00,,,-99.99,wx200d/1.3,2013-04-15 20:48:00,
2013-04-15 16:53:00,51.8,32.0,30.15,ESE,114,8.3,8.3,23,0.00,,,-99.99,wx200d/1.3,2013-04-15 20:53:00,
2013-04-15 16:58:00,52.2,32.0,30.15,SSE,154,8.7,8.7,26,0.00,,,-99.99,wx200d/1.3,2013-04-15 20:58:00,
2013-04-15 17:03:00,52.7,32.0,30.15,East,86,6.9,8.3,26,0.00,,,-99.99,wx200d/1.3,2013-04-15 21:03:00,
2013-04-15 17:08:00,52.5,32.0,30.15,SE,126,7.8,9.2,27,0.00,,,-99.99,wx200d/1.3,2013-04-15 21:08:00,
2013-04-15 17:13:00,52.0,32.0,30.15,SE,132,7.4,8.3,28,0.00,,,-99.99,wx200d/1.3,2013-04-15 21:13:00,
2013-04-15 17:18:00,51.4,32.0,30.15,SE,124,4.9,6.9,29,0.00,,,-99.99,wx200d/1.3,2013-04-15 21:18:00,
2013-04-15 17:23:00,51.1,32.0,30.15,SE,134,6.3,7.4,31,0.00,,,-99.99,wx200d/1.3,2013-04-15 21:23:00,
2013-04-15 17:28:00,50.7,32.0,30.15,SSE,158,6.7,6.7,35,0.00,,,-99.99,wx200d/1.3,2013-04-15 21:28:00,
2013-04-15 17:33:00,50.7,32.0,30.15,SSE,157,5.8,6.7,36,0.00,,,-99.99,wx200d/1.3,2013-04-15 21:33:00,
2013-04-15 17:39:00,50.5,32.0,30.15,SE,141,5.8,6.3,36,0.00,,,-99.99,wx200d/1.3,2013-04-15 21:39:00,
2013-04-15 17:44:00,50.7,32.0,30.15,SSE,160,5.4,9.6,36,0.00,,,-99.99,wx200d/1.3,2013-04-15 21:44:00,
2013-04-15 17:49:00,50.5,32.0,30.15,SE,125,6.3,6.3,36,0.00,,,-99.99,wx200d/1.3,2013-04-15 21:49:00,
2013-04-15 17:54:00,50.5,32.0,30.15,ESE,119,6.3,6.3,37,0.00,,,-99.99,wx200d/1.3,2013-04-15 21:54:00,
2013-04-15 17:59:00,50.4,32.0,30.15,SE,135,4.9,6.3,37,0.00,,,-99.99,wx200d/1.3,2013-04-15 21:59:00,
2013-04-15 18:04:00,50.2,32.0,30.15,ESE,121,4.9,4.9,38,0.00,,,-99.99,wx200d/1.3,2013-04-15 22:04:00,
2013-04-15 18:09:00,50.0,32.0,30.15,SE,132,7.4,7.4,38,0.00,,,-99.99,wx200d/1.3,2013-04-15 22:09:00,
2013-04-15 18:14:00,50.0,32.0,30.15,ESE,122,4.9,6.3,38,0.00,,,-99.99,wx200d/1.3,2013-04-15 22:14:00,
2013-04-15 18:19:00,49.8,32.0,30.15,ESE,110,6.3,6.3,39,0.00,,,-99.99,wx200d/1.3,2013-04-15 22:19:00,
2013-04-15 18:25:00,50.0,32.0,30.15,ENE,77,4.9,4.9,39,0.00,,,-99.99,wx200d/1.3,2013-04-15 22:25:00,
2013-04-15 18:30:00,50.2,32.0,30.15,ESE,102,5.8,6.9,39,0.00,,,-99.99,wx200d/1.3,2013-04-15 22:30:00,
2013-04-15 18:35:00,50.0,32.0,30.15,SE,141,5.8,5.8,39,0.00,,,-99.99,wx200d/1.3,2013-04-15 22:35:00,
2013-04-15 18:40:00,49.6,32.0,30.15,East,97,4.9,4.9,40,0.00,,,-99.99,wx200d/1.3,2013-04-15 22:40:00,
2013-04-15 18:45:00,49.3,32.0,30.15,East,79,4.5,4.5,41,0.00,,,-99.99,wx200d/1.3,2013-04-15 22:45:00,
2013-04-15 18:50:00,49.5,32.0,30.15,SE,145,4.9,6.7,42,0.00,,,-99.99,wx200d/1.3,2013-04-15 22:50:00,
2013-04-15 18:55:00,49.1,32.0,30.15,SE,130,4.0,0.0,42,0.00,,,-99.99,wx200d/1.3,2013-04-15 22:55:00,
2013-04-15 19:00:00,48.9,32.0,30.15,SE,127,4.0,4.0,43,0.00,,,-99.99,wx200d/1.3,2013-04-15 23:00:00,
2013-04-15 19:05:00,48.9,32.0,30.15,ESE,120,2.7,0.0,44,0.00,,,-99.99,wx200d/1.3,2013-04-15 23:05:00,
2013-04-15 19:10:00,48.7,32.0,30.15,ESE,117,4.5,5.4,44,0.00,,,-99.99,wx200d/1.3,2013-04-15 23:10:00,
2013-04-15 19:15:00,48.6,32.0,30.15,ESE,115,4.9,4.9,44,0.00,,,-99.99,wx200d/1.3,2013-04-15 23:15:00,
2013-04-15 19:20:00,48.4,32.0,30.18,SE,132,3.1,4.5,45,0.00,,,-99.99,wx200d/1.3,2013-04-15 23:20:00,
2013-04-15 19:25:00,48.4,32.0,30.18,ESE,116,4.5,4.5,46,0.00,,,-99.99,wx200d/1.3,2013-04-15 23:25:00,
2013-04-15 19:30:00,48.4,32.0,30.18,SSE,164,4.9,4.9,46,0.00,,,-99.99,wx200d/1.3,2013-04-15 23:30:00,
2013-04-15 19:35:00,48.4,32.0,30.18,SE,129,0.0,5.8,46,0.00,,,-99.99,wx200d/1.3,2013-04-15 23:35:00,
2013-04-15 19:40:00,48.4,32.0,30.18,SE,124,0.0,0.0,47,0.00,,,-99.99,wx200d/1.3,2013-04-15 23:40:00,
2013-04-15 19:45:00,48.4,32.0,30.18,SE,136,4.0,4.5,47,0.00,,,-99.99,wx200d/1.3,2013-04-15 23:45:00,
2013-04-15 19:50:00,48.4,32.0,30.18,ESE,115,2.7,3.1,47,0.00,,,-99.99,wx200d/1.3,2013-04-15 23:50:00,
2013-04-15 19:55:00,48.4,32.0,30.18,ESE,116,2.7,0.0,47,0.00,,,-99.99,wx200d/1.3,2013-04-15 23:55:00,
2013-04-15 20:00:00,48.4,32.0,30.18,SE,125,4.0,0.0,47,0.00,,,-99.99,wx200d/1.3,2013-04-16 00:00:00,
2013-04-15 20:05:00,48.6,32.0,30.21,SE,125,0.0,0.0,47,0.00,,,-99.99,wx200d/1.3,2013-04-16 00:05:00,
2013-04-15 20:10:00,48.6,32.0,30.21,SE,125,3.1,3.1,47,0.00,,,-99.99,wx200d/1.3,2013-04-16 00:10:00,
2013-04-15 20:15:00,48.7,32.0,30.21,ESE,119,0.0,0.0,47,0.00,,,-99.99,wx200d/1.3,2013-04-16 00:15:00,
2013-04-15 20:20:00,48.7,32.0,30.18,SW,234,3.1,0.0,43,0.00,,,-99.99,wx200d/1.3,2013-04-16 00:20:00,
2013-04-15 20:25:00,49.1,32.0,30.18,SSW,205,2.7,2.7,38,0.00,,,-99.99,wx200d/1.3,2013-04-16 00:25:00,
2013-04-15 20:30:00,49.5,32.0,30.18,West,280,3.6,3.6,36,0.00,,,-99.99,wx200d/1.3,2013-04-16 00:30:00,
2013-04-15 20:35:00,49.6,32.0,30.18,South,175,0.0,0.0,35,0.00,,,-99.99,wx200d/1.3,2013-04-16 00:35:00,
2013-04-15 20:40:00,49.6,32.0,30.18,SW,220,0.0,3.1,34,0.00,,,-99.99,wx200d/1.3,2013-04-16 00:40:00,
2013-04-15 20:45:00,49.6,32.0,30.18,WSW,240,3.6,3.6,34,0.00,,,-99.99,wx200d/1.3,2013-04-16 00:45:00,
2013-04-15 20:50:00,49.6,32.0,30.18,WSW,242,4.9,5.4,34,0.00,,,-99.99,wx200d/1.3,2013-04-16 00:50:00,
2013-04-15 20:55:00,49.5,32.0,30.18,WNW,282,2.7,4.0,34,0.00,,,-99.99,wx200d/1.3,2013-04-16 00:55:00,
2013-04-15 21:00:00,49.5,32.0,30.18,South,178,2.7,0.0,35,0.00,,,-99.99,wx200d/1.3,2013-04-16 01:00:00,
2013-04-15 21:05:00,49.5,32.0,30.18,SW,218,4.5,0.0,35,0.00,,,-99.99,wx200d/1.3,2013-04-16 01:05:00,
2013-04-15 21:10:00,49.5,32.0,30.18,SE,125,3.1,0.0,36,0.00,,,-99.99,wx200d/1.3,2013-04-16 01:10:00,
2013-04-15 21:15:00,49.5,32.0,30.18,SSW,203,0.0,0.0,36,0.00,,,-99.99,wx200d/1.3,2013-04-16 01:15:00,
2013-04-15 21:20:00,49.1,32.0,30.21,SW,233,3.1,0.0,36,0.00,,,-99.99,wx200d/1.3,2013-04-16 01:20:00,
2013-04-15 21:25:00,49.3,32.0,30.21,SW,214,0.0,0.0,36,0.00,,,-99.99,wx200d/1.3,2013-04-16 01:25:00,
2013-04-15 21:30:00,49.1,32.0,30.21,SW,221,0.0,0.0,36,0.00,,,-99.99,wx200d/1.3,2013-04-16 01:30:00,
2013-04-15 21:35:00,48.9,32.0,30.21,WSW,248,0.0,4.0,37,0.00,,,-99.99,wx200d/1.3,2013-04-16 01:35:00,
2013-04-15 21:40:00,48.7,32.0,30.21,NW,305,0.0,0.0,37,0.00,,,-99.99,wx200d/1.3,2013-04-16 01:40:00,
2013-04-15 21:45:00,48.7,32.0,30.21,WNW,290,2.7,4.9,37,0.00,,,-99.99,wx200d/1.3,2013-04-16 01:45:00,
2013-04-15 21:50:00,48.6,32.0,30.21,WSW,237,6.3,0.0,37,0.00,,,-99.99,wx200d/1.3,2013-04-16 01:50:00,
2013-04-15 21:55:00,48.4,32.0,30.21,WNW,286,3.6,3.6,37,0.00,,,-99.99,wx200d/1.3,2013-04-16 01:55:00,
2013-04-15 22:00:00,48.2,32.0,30.21,SW,223,0.0,2.7,37,0.00,,,-99.99,wx200d/1.3,2013-04-16 02:00:00,
2013-04-15 22:05:00,48.0,32.0,30.21,WSW,238,4.0,4.0,37,0.00,,,-99.99,wx200d/1.3,2013-04-16 02:05:00,
2013-04-15 22:10:00,48.0,32.0,30.21,WSW,257,3.1,0.0,38,0.00,,,-99.99,wx200d/1.3,2013-04-16 02:10:00,
2013-04-15 22:15:00,47.8,32.0,30.21,West,264,4.9,4.9,38,0.00,,,-99.99,wx200d/1.3,2013-04-16 02:15:00,
2013-04-15 22:20:00,47.7,32.0,30.21,South,181,6.3,6.3,38,0.00,,,-99.99,wx200d/1.3,2013-04-16 02:20:00,
2013-04-15 22:25:00,47.5,32.0,30.21,NW,313,5.8,6.7,38,0.00,,,-99.99,wx200d/1.3,2013-04-16 02:25:00,
2013-04-15 22:30:00,47.3,32.0,30.21,SSW,196,3.6,0.0,39,0.00,,,-99.99,wx200d/1.3,2013-04-16 02:30:00,
2013-04-15 22:35:00,47.3,32.0,30.21,WSW,246,3.1,5.8,40,0.00,,,-99.99,wx200d/1.3,2013-04-16 02:35:00,
2013-04-15 22:40:00,47.1,32.0,30.21,West,276,3.1,8.3,40,0.00,,,-99.99,wx200d/1.3,2013-04-16 02:40:00,
2013-04-15 22:45:00,46.9,32.0,30.21,West,268,3.6,3.6,40,0.00,,,-99.99,wx200d/1.3,2013-04-16 02:45:00,
2013-04-15 22:51:00,46.9,32.0,30.21,WSW,250,4.5,4.9,40,0.00,,,-99.99,wx200d/1.3,2013-04-16 02:51:00,
2013-04-15 22:57:00,46.8,32.0,30.21,West,266,3.6,5.4,40,0.00,,,-99.99,wx200d/1.3,2013-04-16 02:57:00,
2013-04-15 23:02:00,46.6,32.0,30.21,WSW,241,3.1,3.1,40,0.00,,,-99.99,wx200d/1.3,2013-04-16 03:02:00,
2013-04-15 23:07:00,46.4,32.0,30.21,West,275,0.0,4.0,40,0.00,,,-99.99,wx200d/1.3,2013-04-16 03:07:00,
2013-04-15 23:12:00,46.4,32.0,30.21,West,259,2.7,0.0,40,0.00,,,-99.99,wx200d/1.3,2013-04-16 03:12:00,
2013-04-15 23:17:00,46.4,32.0,30.21,West,266,0.0,0.0,40,0.00,,,-99.99,wx200d/1.3,2013-04-16 03:17:00,
2013-04-15 23:22:00,46.2,32.0,30.21,WNW,283,4.0,5.8,40,0.00,,,-99.99,wx200d/1.3,2013-04-16 03:22:00,
2013-04-15 23:27:00,46.0,32.0,30.21,SW,233,0.0,5.4,41,0.00,,,-99.99,wx200d/1.3,2013-04-16 03:27:00,
2013-04-15 23:32:00,46.0,32.0,30.21,SW,227,3.1,3.6,41,0.00,,,-99.99,wx200d/1.3,2013-04-16 03:32:00,
2013-04-15 23:37:00,46.0,32.0,30.21,WNW,288,3.1,0.0,41,0.00,,,-99.99,wx200d/1.3,2013-04-16 03:37:00,
2013-04-15 23:42:00,45.9,32.0,30.21,WSW,258,5.8,5.8,41,0.00,,,-99.99,wx200d/1.3,2013-04-16 03:42:00,
2013-04-15 23:47:00,45.7,32.0,30.21,SSW,197,4.9,4.9,41,0.00,,,-99.99,wx200d/1.3,2013-04-16 03:47:00,
2013-04-15 23:52:00,45.5,32.0,30.21,WSW,257,6.3,6.3,42,0.00,,,-99.99,wx200d/1.3,2013-04-16 03:52:00,
2013-04-15 23:57:00,45.5,32.0,30.21,SSW,197,3.1,4.0,42,0.00,,,-99.99,wx200d/1.3,2013-04-16 03:57:00,